Regional Weather Roundup
Issued by NWS Goodland, KS

Home | Current Version | Previous Version | Graphics & Text | Print | Product List | Glossary On
Versions: 1 2 3 4 5 6 7 8 9 10 11 12 13 14 15 16 17 18 19 20 21 22 23 24 25 26 27 28 29 30 31 32 33 34 35 36 37 38 39 40 41 42 43 44 45 46 47 48 49 50
000
ASUS43 KGLD 211359
RWRGLD

GOODLAND FORECAST AREA HOURLY WEATHER ROUNDUP
NATIONAL WEATHER SERVICE GOODLAND KS
800 AM MDT THU SEP 21 2017

...OFFICIAL OBSERVATIONS...

CITY           SKY/WX    TMP DP  RH WIND       PRES   REMARKS
GOODLAND KS    CLOUDY    59  43  55 S14       29.76F
HILL CITY KS   SUNNY     60  51  72 CALM      29.80F
IMPERIAL NEB   SUNNY     52  45  77 SE9       29.77F
MCCOOK NEB     SUNNY     55  50  83 E8        29.78F
AKRON CO       CLOUDY    59  35  40 SW5       29.78R
BURLINGTON CO  SUNNY     61  41  47 SW13      29.80S
LIMON CO       CLOUDY    63  32  31 S7        29.85S
$$

...UNOFFICIAL OBSERVATIONS...

CITY           SKY/WX    TMP DP  RH WIND       PRES   REMARKS
LENORA KS        N/A     54  32  43 MISG        N/A
NORTON KS      SUNNY     61  52  72 SE7       29.78F
SHARON SPRINGS   N/A     59  46  61 SW10        N/A
TRENTON NEB      N/A     54  32  43 SE6         N/A
KIT CARSON CO    N/A     50  40  69 CALM        N/A
YUMA CO        FAIR      48  39  71 CALM      29.77F
$$




USA.gov is the U.S. government's official web portal to all federal, state and local government web resources and services.